IRIDIUM 91 [-]

Last updated on March 14, 2019, 3:12 a.m. UTC

1 27372U 02005A   19072.23071266  .25300053 -14789-5  31691-3 0  9990
2 27372  86.5521  20.3199 0048647  89.1819 272.4669 16.44040915902820

Satellite is not in orbit.